Terminal Aerodrome Forecast
Issued by NWS

Home | Current Version | Previous Version | Text Only | Print | Product List | Glossary On
Versions: 1 2 3 4 5 6 7 8 9 10 11 12 13 14 15 16
000
FTUS46 KMTR 200200 AAA
TAFMRY
TAF AMD
KMRY 200242Z 2003/2024 25006KT P6SM FEW020
     FM200500 VRB03KT P6SM BKN008
     FM201000 VRB03KT P6SM OVC004
     FM201800 VRB03KT P6SM SCT015 BKN150
     FM202000 26008KT P6SM BKN150=

USA.gov is the U.S. government's official web portal to all federal, state and local government web resources and services.